Tracking 25953 objects as of 16-Aug-2022
HD Live streaming from Space Station
objects crossing your sky now

STARLINK-4086

Track STARLINK-4086 now!
10-day predictions
STARLINK-4086 is classified as:


NORAD ID: 52833
Int'l Code: 2022-062D
Perigee: 545.9 km
Apogee: 548.0 km
Inclination: 53.2 °
Period: 95.4 minutes
Semi major axis: 6917 km
RCS: Unknown
Launch date: June 17, 2022
Source: United States (US)
Launch site: AIR FORCE EASTERN TEST RANGE (AFETR)
aabbcc
Your satellite tracking list
Your tracking list is empty




NASA's NSSDC Master Catalog

Two Line Element Set (TLE):
1 52833U 22062D   22227.66667824 -.00007686  00000-0 -46550-3 0  9995
2 52833  53.2122 119.1289 0001513  72.8736 174.5739 15.08825545  9213
Source of the keplerian elements: AFSPC